GW7296 Weather Reports


time (UTC)temp
C
wind
direction
speed
KPH
gust
KPH
rain 1hr
cm
rain 24hr
cm
rain mn
cm
humidity
%
barometer
mb
20260906113526 18 92 0.0 0.0 0.00 0.00 0.00 99 1019.6
20260906113022 18 92 0.0 0.0 0.00 0.00 0.00 99 1019.4
20260906112516 18 88 0.0 0.0 0.00 0.00 0.00 99 1019.2
20260906112013 18 88 0.0 1.6 0.00 0.00 0.00 99 1019.2
20260906111512 18 89 0.0 1.6 0.00 0.00 0.00 99 1019.4
20260906111008 18 89 0.0 0.0 0.00 0.00 0.00 99 1019.2
20260906110502 18 89 0.0 1.6 0.00 0.00 0.00 99 1019.5
20260906110001 18 89 0.0 1.6 0.00 0.00 0.00 99 1019.2
20260906105457 18 89 0.0 0.0 0.00 0.00 0.00 99 1019.1
20260906104953 18 88 0.0 1.6 0.00 0.00 0.00 99 1019.4
20260906104451 18 89 0.0 1.6 0.00 0.00 0.00 99 1019.3
20260906103951 18 89 0.0 4.8 0.00 0.00 0.00 99 1019.4
20260906103449 18 86 0.0 1.6 0.00 0.00 0.00 99 1019.2
20260906102944 18 87 0.0 1.6 0.00 0.00 0.00 99 1019.2
20260906102445 18 87 0.0 1.6 0.00 0.00 0.00 99 1019.2
20260906101945 18 88 0.0 0.0 0.00 0.00 0.00 99 1018.9
20260906101441 18 88 0.0 0.0 0.00 0.00 0.00 99 1018.9
20260906100941 18 88 0.0 1.6 0.00 0.00 0.00 99 1018.9
20260906100436 18 88 0.0 1.6 0.00 0.00 0.00 99 1018.7
20260906095936 18 88 0.0 0.0 0.00 0.00 0.00 99 1018.8
20260906095431 18 89 0.0 0.0 0.00 0.00 0.00 99 1019.0
20260906094926 18 89 0.0 0.0 0.00 0.00 0.00 99 1019.0
20260906094420 18 89 0.0 1.6 0.00 0.00 0.00 99 1018.9
20260906093916 18 90 0.0 0.0 0.00 0.00 0.00 99 1018.7
20260906093413 18 89 0.0 1.6 0.00 0.00 0.00 99 1018.8
20260906092913 18 93 0.0 0.0 0.00 0.00 0.00 99 1018.8
20260906092412 18 93 0.0 1.6 0.00 0.00 0.00 99 1018.6
20260906091908 18 93 1.6 1.6 0.00 0.00 0.00 99 1018.7
20260906091404 18 93 0.0 0.0 0.00 0.00 0.00 99 1018.7
20260906090900 18 93 0.0 1.6 0.00 0.00 0.00 99 1018.8
20260906090359 17 93 0.0 1.6 0.00 0.00 0.00 99 1018.7
20260906085854 17 93 0.0 1.6 0.00 0.00 0.00 99 1018.6
20260906085354 17 93 0.0 1.6 0.00 0.00 0.00 99 1018.9
20260906084848 17 93 0.0 0.0 0.00 0.00 0.00 99 1018.7
20260906084348 17 93 0.0 0.0 0.00 0.00 0.00 99 1018.5
20260906083842 17 93 0.0 0.0 0.00 0.00 0.00 99 1018.8
20260906083338 17 93 0.0 0.0 0.00 0.00 0.00 99 1018.6
20260906082838 17 93 0.0 0.0 0.00 0.00 0.00 99 1018.6
20260906082333 18 93 0.0 0.0 0.00 0.00 0.00 99 1018.6
20260906081829 18 93 0.0 0.0 0.00 0.00 0.00 99 1018.7
20260906081324 18 93 0.0 0.0 0.00 0.00 0.00 99 1018.7
20260906080820 18 93 0.0 0.0 0.00 0.00 0.00 99 1018.8
20260906080316 18 93 0.0 0.0 0.00 0.00 0.00 99 1018.8
20260906075816 18 93 0.0 0.0 0.00 0.00 0.00 99 1018.5
20260906075316 18 93 0.0 0.0 0.00 0.00 0.00 99 1018.7
20260906074811 18 93 0.0 0.0 0.00 0.00 0.00 99 1018.7
20260906074311 18 93 0.0 0.0 0.00 0.00 0.00 99 1018.7
20260906073810 18 93 0.0 0.0 0.00 0.00 0.00 99 1018.8
20260906073305 18 93 0.0 0.0 0.00 0.00 0.00 99 1018.8
20260906072801 18 93 0.0 0.0 0.00 0.00 0.00 99 1018.6
20260906072257 18 93 0.0 0.0 0.00 0.00 0.00 99 1018.7
20260906071752 18 93 0.0 1.6 0.00 0.00 0.00 99 1018.6
20260906071252 18 93 0.0 0.0 0.00 0.00 0.00 99 1018.7
20260906070749 18 93 0.0 1.6 0.00 0.00 0.00 99 1018.5
20260906070244 18 93 0.0 0.0 0.00 0.00 0.00 99 1018.7
20260906065744 18 93 0.0 0.0 0.00 0.00 0.00 99 1018.8
20260906065239 19 93 0.0 0.0 0.00 0.00 0.00 99 1018.9
20260906064735 19 93 0.0 0.0 0.00 0.00 0.00 98 1018.8
20260906064230 19 93 0.0 0.0 0.00 0.00 0.00 98 1018.8
20260906063725 19 93 0.0 0.0 0.00 0.00 0.00 98 1018.9
20260906063221 19 93 0.0 1.6 0.00 0.00 0.00 97 1018.9
20260906062716 19 93 0.0 0.0 0.00 0.00 0.00 97 1018.8
20260906062215 20 93 0.0 0.0 0.00 0.00 0.00 97 1018.9
20260906061711 20 93 0.0 1.6 0.00 0.00 0.00 96 1019.0
20260906061207 20 93 0.0 0.0 0.00 0.00 0.00 96 1019.0
20260906060703 20 93 0.0 1.6 0.00 0.00 0.00 95 1018.7
20260906060200 20 93 0.0 1.6 0.00 0.00 0.00 95 1018.9
20260906055655 20 93 0.0 4.8 0.00 0.00 0.00 95 1018.9
20260906055150 20 102 0.0 1.6 0.00 0.00 0.00 95 1019.1
20260906054646 20 103 0.0 0.0 0.00 0.00 0.00 95 1018.9
20260906054140 20 103 0.0 1.6 0.00 0.00 0.00 95 1019.0
20260906053637 20 126 0.0 1.6 0.00 0.00 0.00 95 1019.1
20260906053137 20 83 1.6 1.6 0.00 0.00 0.00 95 1019.0
20260906052633 20 98 0.0 1.6 0.00 0.00 0.00 95 1018.8
20260906052129 20 95 1.6 1.6 0.00 0.00 0.00 96 1018.8
20260906051626 20 66 1.6 4.8 0.00 0.00 0.00 95 1018.6
20260906051125 20 142 0.0 1.6 0.00 0.00 0.00 95 1018.7
20260906050621 20 99 0.0 1.6 0.00 0.00 0.00 96 1018.5
20260906050116 20 101 0.0 0.0 0.00 0.00 0.00 95 1018.8
20260906045614 20 90 0.0 4.8 0.00 0.00 0.00 96 1018.5
20260906045110 20 87 0.0 1.6 0.00 0.00 0.00 95 1018.3
20260906044606 20 94 0.0 1.6 0.00 0.00 0.00 95 1018.4
20260906044101 20 95 0.0 0.0 0.00 0.00 0.00 95 1018.5
20260906043557 20 95 0.0 1.6 0.00 0.00 0.00 95 1018.4
20260906043052 20 95 0.0 0.0 0.00 0.00 0.00 95 1018.4
20260906042551 20 95 0.0 1.6 0.00 0.00 0.00 95 1018.4
20260906042046 20 118 0.0 0.0 0.00 0.00 0.00 95 1018.4
20260906041542 20 118 0.0 1.6 0.00 0.00 0.00 94 1018.3
20260906041037 20 120 0.0 0.0 0.00 0.00 0.00 94 1018.0
20260906040532 20 141 0.0 1.6 0.00 0.00 0.00 94 1018.0
20260906040028 20 97 0.0 1.6 0.00 0.00 0.00 94 1017.9
20260906035523 20 91 0.0 1.6 0.00 0.00 0.00 94 1017.9
20260906035019 20 120 0.0 1.6 0.00 0.00 0.00 94 1017.8
20260906034518 20 126 0.0 4.8 0.00 0.00 0.00 95 1017.7
20260906034013 20 89 0.0 1.6 0.00 0.00 0.00 95 1017.9
20260906033508 20 89 0.0 1.6 0.00 0.00 0.00 95 1017.6
20260906033004 20 89 0.0 1.6 0.00 0.00 0.00 95 1017.6
20260906032501 20 84 1.6 1.6 0.00 0.00 0.00 94 1017.5
20260906032000 20 85 0.0 1.6 0.00 0.00 0.00 94 1017.5
20260906031456 20 92 0.0 1.6 0.00 0.00 0.00 94 1017.3
20260906030951 20 96 0.0 1.6 0.00 0.00 0.00 93 1017.4
20260906030446 20 105 0.0 1.6 0.00 0.00 0.00 93 1017.5
20260906025940 20 90 1.6 1.6 0.00 0.00 0.00 93 1017.3
20260906025440 20 102 0.0 1.6 0.00 0.00 0.00 93 1017.6
20260906024939 21 102 0.0 1.6 0.00 0.00 0.00 92 1017.6
20260906024438 21 102 0.0 1.6 0.00 0.00 0.00 92 1017.3
20260906023939 21 133 0.0 1.6 0.00 0.00 0.00 91 1017.4
20260906023436 21 93 0.0 1.6 0.00 0.00 0.00 91 1017.4
20260906022936 21 78 1.6 4.8 0.00 0.00 0.00 91 1017.3
20260906022431 21 91 0.0 0.0 0.00 0.00 0.00 91 1017.3
20260906021926 21 91 0.0 1.6 0.00 0.00 0.00 90 1017.2
20260906021426 21 119 0.0 0.0 0.00 0.00 0.00 91 1017.4
20260906020926 21 103 0.0 1.6 0.00 0.00 0.00 91 1017.5
20260906020421 21 102 0.0 1.6 0.00 0.00 0.00 91 1017.6
20260906015915 21 104 0.0 1.6 0.00 0.00 0.00 91 1017.2
20260906015415 21 166 4.8 9.7 0.00 0.00 0.00 91 1017.4
20260906014915 21 105 1.6 4.8 0.00 0.00 0.00 91 1017.4
20260906014414 21 92 0.0 1.6 0.00 0.00 0.00 90 1017.4
20260906013911 21 99 0.0 1.6 0.00 0.00 0.00 91 1017.3
20260906013406 21 99 0.0 1.6 0.00 0.00 0.00 90 1017.6
20260906012902 21 82 0.0 1.6 0.00 0.00 0.00 90 1017.5
20260906012402 21 82 0.0 1.6 0.00 0.00 0.00 91 1017.5
20260906011901 21 106 0.0 1.6 0.00 0.00 0.00 90 1017.4
20260906011356 21 102 0.0 1.6 0.00 0.00 0.00 90 1017.6
20260906010852 21 89 1.6 4.8 0.00 0.00 0.00 90 1017.5
20260906010348 21 98 0.0 1.6 0.00 0.00 0.00 90 1017.6
20260906005843 21 107 1.6 4.8 0.00 0.00 0.00 90 1017.5
20260906005342 21 69 1.6 1.6 0.00 0.00 0.00 89 1017.6
20260906004842 21 103 1.6 1.6 0.00 0.00 0.00 90 1017.3
20260906004341 21 120 0.0 4.8 0.00 0.00 0.00 89 1017.3
20260906003836 21 110 0.0 1.6 0.00 0.00 0.00 89 1017.4
20260906003332 21 121 0.0 1.6 0.00 0.00 0.00 89 1016.9
20260906002827 21 95 0.0 0.0 0.00 0.00 0.00 90 1017.2
20260906002326 21 137 1.6 4.8 0.00 0.00 0.00 89 1017.1
20260906001823 22 88 1.6 4.8 0.00 0.00 0.00 89 1017.1
20260906001318 22 102 0.0 1.6 0.00 0.00 0.00 89 1017.1
20260906000813 22 87 3.2 4.8 0.00 0.00 0.00 89 1017.2
20260906000307 22 83 3.2 4.8 0.00 0.00 0.00 88 1017.0
20260905235802 22 83 1.6 4.8 0.00 0.00 0.00 88 1016.9
20260905235306 22 65 1.6 4.8 0.00 0.00 0.00 87 1017.0
20260905234758 22 87 0.0 4.8 0.00 0.00 0.00 88 1016.7
20260905234252 22 86 1.6 4.8 0.00 0.00 0.00 87 1016.9
20260905233748 22 78 1.6 1.6 0.00 0.00 0.00 86 1016.7
20260905233248 23 80 3.2 4.8 0.00 0.00 0.00 85 1016.8
20260905232747 23 67 6.4 9.7 0.00 0.00 0.00 84 1016.8
20260905232243 23 111 0.0 4.8 0.00 0.00 0.00 84 1016.6
20260905231739 23 91 1.6 6.4 0.00 0.00 0.00 82 1016.7
20260905231234 23 105 0.0 1.6 0.00 0.00 0.00 83 1016.5
20260905230730 23 74 3.2 4.8 0.00 0.00 0.00 83 1016.8
20260905230228 23 82 3.2 6.4 0.00 0.00 0.00 81 1016.5
20260905225728 24 104 1.6 6.4 0.00 0.00 0.00 81 1016.4
20260905225223 24 66 4.8 8.0 0.00 0.00 0.00 82 1016.5
20260905224722 25 103 1.6 8.0 0.00 0.00 0.00 82 1016.1
20260905224217 25 83 1.6 6.4 0.00 0.00 0.00 81 1016.2
20260905223714 25 129 3.2 6.4 0.00 0.00 0.00 80 1016.2
20260905223210 25 64 4.8 6.4 0.00 0.00 0.00 79 1016.2
20260905222706 25 99 1.6 4.8 0.00 0.00 0.00 80 1016.0
20260905222205 25 118 0.0 4.8 0.00 0.00 0.00 80 1016.3
20260905221700 25 103 1.6 8.0 0.00 0.00 0.00 80 1016.1
20260905221158 26 99 1.6 6.4 0.00 0.00 0.00 80 1016.1
20260905220653 26 122 0.0 6.4 0.00 0.00 0.00 78 1016.1
20260905220149 26 96 1.6 6.4 0.00 0.00 0.00 77 1016.2
20260905215648 26 91 0.0 4.8 0.00 0.00 0.00 79 1016.0
20260905215144 26 105 0.0 1.6 0.00 0.00 0.00 79 1016.1
20260905214640 26 102 1.6 1.6 0.00 0.00 0.00 78 1016.1
20260905214135 26 99 1.6 1.6 0.00 0.00 0.00 76 1016.0
20260905213630 27 112 0.0 1.6 0.00 0.00 0.00 73 1015.8
20260905213125 27 107 0.0 1.6 0.00 0.00 0.00 72 1015.8
20260905212621 27 97 0.0 6.4 0.00 0.00 0.00 72 1015.9
20260905212120 27 86 1.6 1.6 0.00 0.00 0.00 72 1015.9
20260905211615 27 120 0.0 4.8 0.00 0.00 0.00 74 1015.7
20260905211111 27 100 0.0 1.6 0.00 0.00 0.00 74 1016.0
20260905210607 27 108 0.0 4.8 0.00 0.00 0.00 72 1015.8
20260905210107 27 73 3.2 6.4 0.00 0.00 0.00 75 1015.9
20260905205606 27 89 3.2 4.8 0.00 0.00 0.00 74 1015.7
20260905205106 27 108 1.6 1.6 0.00 0.00 0.00 75 1015.7
20260905204600 27 91 1.6 4.8 0.00 0.00 0.00 73 1016.0
20260905204055 27 92 1.6 4.8 0.00 0.00 0.00 75 1016.1
20260905203555 27 92 1.6 6.4 0.00 0.00 0.00 74 1016.0
20260905203051 27 99 0.0 1.6 0.00 0.00 0.00 75 1016.1
20260905202546 26 98 0.0 4.8 0.00 0.00 0.00 76 1016.0
20260905202042 27 110 0.0 1.6 0.00 0.00 0.00 78 1016.1
20260905201537 27 92 0.0 4.8 0.00 0.00 0.00 77 1016.1
20260905201037 27 144 1.6 1.6 0.00 0.00 0.00 77 1016.1
20260905200532 26 90 0.0 1.6 0.00 0.00 0.00 78 1016.2
20260905200032 26 77 1.6 4.8 0.00 0.00 0.00 78 1016.0
20260905195526 26 116 0.0 1.6 0.00 0.00 0.00 79 1016.0
20260905195022 26 87 1.6 4.8 0.00 0.00 0.00 81 1016.1
20260905194521 26 102 0.0 1.6 0.00 0.00 0.00 83 1016.3
20260905194021 26 110 0.0 1.6 0.00 0.00 0.00 83 1016.2
20260905193521 25 123 0.0 1.6 0.00 0.00 0.00 86 1016.5
20260905193017 25 110 0.0 4.8 0.00 0.00 0.00 86 1016.7
20260905192512 25 90 0.0 1.6 0.00 0.00 0.00 87 1016.5
20260905192008 25 90 1.6 1.6 0.00 0.00 0.00 85 1016.5
20260905191507 25 98 1.6 4.8 0.00 0.00 0.00 86 1016.4
20260905191006 24 91 0.0 4.8 0.00 0.00 0.00 87 1016.5
20260905190504 24 97 0.0 6.4 0.00 0.00 0.00 86 1016.8
20260905190003 24 96 1.6 4.8 0.00 0.00 0.00 87 1016.6
20260905185458 24 96 1.6 4.8 0.00 0.00 0.00 86 1016.6
20260905184957 24 101 1.6 1.6 0.00 0.00 0.00 86 1016.6
20260905184452 23 89 1.6 4.8 0.00 0.00 0.00 88 1016.7
20260905183951 23 101 0.0 1.6 0.00 0.00 0.00 89 1016.7
20260905183450 23 94 0.0 0.0 0.00 0.00 0.00 89 1016.8
20260905182945 23 94 0.0 0.0 0.00 0.00 0.00 89 1016.8
20260905182445 23 99 0.0 1.6 0.00 0.00 0.00 89 1017.0
20260905181940 23 89 0.0 1.6 0.00 0.00 0.00 89 1016.9
20260905181441 23 94 0.0 1.6 0.00 0.00 0.00 89 1016.8
20260905180940 23 108 0.0 0.0 0.00 0.00 0.00 89 1016.9
20260905180435 23 91 0.0 1.6 0.00 0.00 0.00 89 1016.8
20260905175930 23 85 0.0 1.6 0.00 0.00 0.00 89 1016.7
20260905175429 23 78 0.0 6.4 0.00 0.00 0.00 89 1016.7
20260905174925 23 85 0.0 1.6 0.00 0.00 0.00 88 1016.7
20260905174420 23 89 1.6 1.6 0.00 0.00 0.00 89 1016.9
20260905173916 23 123 0.0 1.6 0.00 0.00 0.00 90 1016.7
20260905173413 23 104 0.0 1.6 0.00 0.00 0.00 89 1016.8
20260905172913 23 93 1.6 1.6 0.00 0.00 0.00 90 1016.7
20260905172410 23 98 0.0 0.0 0.00 0.00 0.00 89 1016.7
20260905171907 23 84 0.0 1.6 0.00 0.00 0.00 89 1016.7
20260905171403 24 99 0.0 4.8 0.00 0.00 0.00 89 1016.6
20260905170859 24 95 1.6 1.6 0.00 0.00 0.00 89 1016.9
20260905170355 24 40 3.2 6.4 0.00 0.00 0.00 87 1016.8
20260905165854 24 96 0.0 4.8 0.00 0.00 0.00 87 1016.7
20260905165349 24 82 1.6 4.8 0.00 0.00 0.00 88 1016.6
20260905164844 25 51 3.2 4.8 0.00 0.00 0.00 87 1016.9
20260905164339 25 86 1.6 4.8 0.00 0.00 0.00 88 1016.9
20260905163834 25 87 1.6 1.6 0.00 0.00 0.00 87 1016.8
20260905163331 24 102 0.0 4.8 0.00 0.00 0.00 89 1016.8
20260905162827 24 71 3.2 6.4 0.00 0.00 0.00 89 1016.7
20260905162327 24 98 1.6 1.6 0.00 0.00 0.00 89 1016.8
20260905161827 25 89 0.0 1.6 0.00 0.00 0.00 89 1016.5
20260905161326 25 89 0.0 1.6 0.00 0.00 0.00 89 1016.8
20260905160824 25 113 1.6 4.8 0.00 0.00 0.00 88 1016.6
20260905160319 25 101 0.0 4.8 0.00 0.00 0.00 89 1016.9
20260905155814 25 89 1.6 1.6 0.00 0.00 0.00 88 1016.9
20260905155313 25 95 0.0 4.8 0.00 0.00 0.00 88 1016.6
20260905154807 25 82 0.0 1.6 0.00 0.00 0.00 88 1016.7
20260905154302 24 83 0.0 1.6 0.00 0.00 0.00 90 1016.6
20260905153758 24 95 1.6 1.6 0.00 0.00 0.00 91 1016.4
20260905153254 24 81 1.6 4.8 0.00 0.00 0.00 91 1016.4
20260905152749 24 78 0.0 4.8 0.00 0.00 0.00 91 1016.3
20260905152248 24 71 1.6 4.8 0.00 0.00 0.00 91 1016.3
20260905151748 23 41 3.2 4.8 0.00 0.00 0.00 93 1016.2
20260905151244 23 96 1.6 1.6 0.00 0.00 0.00 93 1016.1
20260905150744 23 102 0.0 4.8 0.00 0.00 0.00 93 1016.3
20260905150243 23 79 0.0 1.6 0.00 0.00 0.00 95 1016.1
20260905145741 23 75 0.0 0.0 0.00 0.00 0.00 95 1016.3
20260905145236 22 75 0.0 4.8 0.00 0.00 0.00 96 1016.2
20260905144734 22 76 0.0 4.8 0.00 0.00 0.00 96 1016.2
20260905144230 22 88 0.0 1.6 0.00 0.00 0.00 97 1016.1
20260905143729 22 82 0.0 1.6 0.00 0.00 0.00 97 1016.2
20260905143229 22 81 1.6 4.8 0.00 0.00 0.00 96 1016.1
20260905142727 22 89 0.0 6.4 0.00 0.00 0.00 97 1016.0
20260905142222 22 95 0.0 4.8 0.00 0.00 0.00 98 1016.2
20260905141718 22 101 0.0 1.6 0.00 0.00 0.00 98 1016.0
20260905141214 22 153 0.0 4.8 0.00 0.00 0.00 98 1016.2
20260905140708 22 87 1.6 1.6 0.00 0.00 0.00 98 1016.1
20260905140203 22 92 0.0 1.6 0.00 0.00 0.00 99 1016.2
20260905135657 22 92 0.0 1.6 0.00 0.00 0.00 99 1015.9
20260905135154 22 88 0.0 0.0 0.00 0.00 0.00 99 1015.8
20260905134653 22 81 0.0 4.8 0.00 0.00 0.00 99 1015.7
20260905134152 22 83 0.0 1.6 0.00 0.00 0.00 99 1015.9
20260905133647 21 84 1.6 4.8 0.00 0.00 0.00 99 1015.9
20260905133147 21 84 0.0 1.6 0.00 0.00 0.00 99 1016.0
20260905132647 21 84 0.0 1.6 0.00 0.00 0.00 99 1015.7
20260905132142 21 91 1.6 1.6 0.00 0.00 0.00 99 1016.0
20260905131637 21 88 0.0 1.6 0.00 0.00 0.00 99 1015.8
20260905131138 21 92 1.6 1.6 0.00 0.00 0.00 99 1016.4
20260905130633 21 88 1.6 1.6 0.00 0.00 0.00 99 1016.3
20260905130132 21 103 0.0 1.6 0.00 0.00 0.00 99 1016.1
20260905125626 21 95 0.0 1.6 0.00 0.00 0.00 99 1015.6
20260905125122 21 110 1.6 4.8 0.00 0.00 0.00 99 1015.6
20260905124619 21 83 0.0 1.6 0.00 0.00 0.00 99 1015.4
20260905124115 21 83 0.0 1.6 0.00 0.00 0.00 99 1015.5
20260905123609 21 107 0.0 1.6 0.00 0.00 0.00 99 1015.3
20260905123107 21 108 0.0 0.0 0.00 0.00 0.00 99 1015.3
20260905122607 21 108 0.0 0.0 0.00 0.00 0.00 99 1015.1
20260905122106 21 111 0.0 1.6 0.00 0.00 0.00 99 1015.1
20260905121601 21 92 0.0 4.8 0.00 0.00 0.00 99 1014.9
20260905121057 21 129 0.0 1.6 0.00 0.00 0.00 99 1015.0
20260905120555 21 127 0.0 1.6 0.00 0.00 0.00 99 1014.8
20260905120051 21 101 0.0 0.0 0.00 0.00 0.00 99 1014.6
20260905115550 21 101 0.0 1.6 0.00 0.00 0.00 99 1014.6
20260905115044 21 101 0.0 0.0 0.00 0.00 0.00 99 1014.7
20260905114544 21 101 0.0 0.0 0.00 0.00 0.00 99 1014.6
20260905114043 21 101 0.0 1.6 0.00 0.00 0.00 99 1014.5